Probability
0 0 0 0 0 0 0 0 0 0 0 0 0 0 0 0 0 0 0 0 0 0 0 0 0 0 0 0 0 0 0 0 0 0 0 0 0 0 0 0 0 0 0
0 0 0 0 0 0 0 0 0 0 0 0 0 0 0 0 0 0 0 0 0 0 0 0 0 0 0 0 0 0 0 0 0 0 0 0 0 0 0 0 0 0 0
0 0 0 0 0 0 0 0 0 0 0 0 0 0 0 0 0 0 0 0 0 0 0 0 0 0 0 0 0 0 1 1 0 0 0 0 0 0 0 0 0 0 0
1 1 2 1 0 0 0 0 0 0 0 0 0 0 0 0 0 0 0 0 0 0 0 0 0 0 0 0 0 0 1 1 0 0 0 0 0 0 0 0 0 0 0
4 6 5 3 1 1 0 0 0 0 0 0 0 0 0 0 0 0 0 0 0 0 0 0 0 0 0 0 0 0 1 1 0 0 0 0 0 0 0 0 0 0 0
15 16 14 10 8 6 3 1 1 0 0 0 0 0 0 0 0 0 0 0 0 0 0 0 0 0 0 0 0 0 0 0 0 0 0 0 0 0 0 0 0 0 0
30 30 25 19 15 10 5 2 1 0 0 0 0 0 0 0 0 0 0 0 0 0 0 1 1 0 0 0 0 1 1 1 0 0 0 0 0 0 0 0 0 0 0
37 36 32 24 15 10 6 2 1 0 0 0 0 0 0 0 0 0 0 0 0 1 1 1 2 1 0 0 0 1 2 2 1 0 0 0 0 0 0 0 0 0 0
37 36 32 22 12 6 4 2 1 0 0 0 0 0 0 0 0 0 0 0 0 0 0 1 1 1 0 0 0 0 1 2 1 0 0 0 0 0 0 0 0 0 0
38 35 28 16 7 3 1 1 0 0 0 0 0 0 0 0 0 0 0 0 0 0 0 0 0 0 0 0 0 0 0 1 1 1 0 0 0 0 0 0 0 0 0
42 37 25 14 6 2 0 0 0 0 0 0 0 0 0 0 0 0 0 0 0 0 0 0 0 0 0 0 1 1 1 1 1 1 1 0 0 0 0 0 0 0 0
42 36 26 16 9 3 0 0 0 0 0 0 0 0 0 0 0 0 0 0 0 0 0 0 0 0 0 0 1 2 1 1 1 1 1 0 0 0 0 0 0 0 0
31 28 23 16 9 4 1 0 0 0 0 0 0 0 0 0 0 0 0 0 0 0 0 0 0 0 0 0 1 1 1 0 0 1 1 0 0 0 0 0 0 0 0
18 18 17 13 9 6 3 2 1 0 0 0 0 0 0 0 0 0 0 0 0 0 0 0 0 0 0 0 0 0 0 0 0 0 0 0 0 0 0 0 0 0 0
10 11 11 10 8 7 5 2 1 0 0 0 0 0 0 0 0 0 0 0 0 0 0 0 0 0 0 0 0 0 0 0 0 0 0 0 0 0 0 0 0 0 0
4 5 5 5 4 5 4 2 0 0 0 0 0 0 0 0 0 0 0 0 0 0 0 0 0 0 0 0 0 0 0 0 0 0 0 0 0 0 0 0 0 0 0
1 1 1 1 1 1 1 0 0 0 0 0 0 0 0 0 0 0 0 0 0 0 0 0 0 0 0 0 0 0 0 0 0 0 0 0 0 0 0 0 0 0 0
0 0 0 0 0 0 0 0 0 0 0 0 0 0 0 0 0 0 0 0 0 0 0 0 0 0 0 0 0 0 0 0 0 0 0 0 0 0 0 0 0 0 0
0 0 0 0 0 0 0 0 0 0 0 0 0 0 0 0 0 0 0 0 0 0 0 0 0 0 0 0 0 0 0 0 0 0 0 0 0 0 0 0 0 0 0
0 0 0 0 0 0 0 0 0 0 0 0 0 0 0 0 0 0 0 0 0 0 0 0 0 0 0 0 0 0 0 0 0 0 0 0 0 0 0 0 0 0 0
0 0 0 0 0 0 0 0 0 0 0 0 0 0 0 0 0 0 0 0 0 0 0 0 0 0 0 0 0 0 0 0 0 0 0 0 0 0 0 0 0 0 0
0 0 0 0 0 0 0 0 0 0 0 0 0 0 0 0 0 0 0 0 0 0 0 0 0 0 0 0 0 0 0 0 0 0 0 0 0 0 0 0 0 0 0
0 0 0 0 0 0 0 0 0 0 0 0 0 0 0 0 0 0 0 0 0 0 0 0 0 0 0 0 0 0 0 0 0 0 0 0 0 0 0 0 0 0 0
0 0 0 0 0 0 0 0 0 0 0 0 0 0 0 0 0 0 0 0 0 0 0 0 0 0 0 0 0 0 0 0 0 0 0 0 0 0 0 0 0 0 0
0 0 0 0 0 0 0 0 0 0 0 0 0 0 0 0 0 0 0 0 0 0 0 0 0 0 0 0 0 0 0 0 0 0 0 0 0 0 0 0 0 0 0
0 0 0 0 0 0 0 0 0 0 0 0 0 0 0 0 0 0 0 0 0 0 0 0 0 0 0 0 0 0 0 0 0 0 0 0 0 0 0 0 0 0 0
Wind_Speed
4 4 4 5 5 5 4 3 4 2 2 4 3 5 4 3 4 6 4 6 5 3 2 2 2 2 2 1 2 2 3 5 5 5 4 4 4 4 4 3 3 3 3
3 3 3 3 2 3 4 4 3 3 1 3 4 3 3 2 3 6 6 5 5 4 3 3 3 2 2 2 2 3 3 4 5 5 4 4 4 4 4 3 3 3 2
4 4 3 4 3 2 4 2 0 2 2 3 1 0 2 3 1 5 7 6 4 4 4 4 4 3 3 3 3 3 3 3 3 4 4 4 4 4 3 4 4 4 3
6 4 2 3 2 2 1 2 1 1 1 1 1 2 2 2 2 2 4 6 6 5 4 5 5 5 5 5 4 4 4 3 3 3 3 3 3 3 3 3 3 4 4
5 4 3 1 2 2 1 2 1 1 0 1 0 0 1 2 1 2 3 6 6 7 5 5 7 6 5 5 4 4 4 4 4 3 3 3 3 3 3 3 4 4 4
4 5 4 2 2 2 1 1 0 1 1 1 2 1 1 1 2 2 1 3 4 7 8 7 5 5 6 6 5 4 4 4 4 3 3 3 3 3 3 4 4 4 4
3 4 4 3 3 2 1 0 1 0 1 1 2 3 2 3 4 3 2 1 2 5 7 8 6 5 4 6 5 5 4 4 4 3 3 3 3 3 3 3 3 3 3
3 4 4 3 3 2 1 1 0 0 1 1 1 1 2 4 3 2 2 2 2 3 4 6 7 7 6 4 6 7 5 5 5 4 3 3 2 2 3 3 3 2 2
3 3 3 4 3 4 3 3 3 4 3 3 3 2 2 3 2 3 4 4 3 2 3 2 4 7 8 7 6 6 7 5 4 4 4 3 3 3 2 1 1 1 2
3 3 2 2 3 3 4 5 5 4 5 4 4 3 4 3 2 2 3 2 4 4 3 2 1 1 5 7 8 10 9 6 4 4 5 4 4 4 3 3 2 2 2
3 2 2 2 2 3 4 4 4 4 4 5 4 3 3 2 3 3 2 3 2 2 2 2 2 1 2 7 7 10 11 7 5 4 5 4 4 5 4 4 3 2 2
2 2 1 0 1 2 2 3 3 4 4 4 3 3 2 2 2 2 3 3 3 2 2 2 2 2 2 4 7 14 12 9 7 5 4 4 4 4 4 3 3 2 2
2 2 1 1 1 2 1 1 1 2 4 4 4 3 2 2 1 1 2 3 3 2 1 2 3 3 3 3 5 14 12 11 9 7 6 5 4 4 4 3 3 3 2
2 1 1 2 2 2 1 1 0 2 2 3 3 3 2 2 2 2 3 2 2 2 2 3 1 2 3 4 8 14 8 13 11 10 9 8 7 6 5 5 4 3 3
1 1 2 3 3 2 2 1 1 3 2 1 0 1 1 2 2 2 2 3 3 3 4 4 2 2 2 2 7 7 6 13 14 12 11 10 9 8 7 6 5 4 3
1 1 3 4 4 4 3 1 0 1 1 0 1 1 2 1 2 2 2 2 3 4 3 2 3 2 1 2 6 6 6 14 17 15 14 13 11 10 9 8 7 6 5
0 1 3 4 4 5 5 4 2 2 2 2 3 4 4 3 2 2 2 2 3 3 4 3 2 2 1 2 1 3 3 5 8 15 16 15 14 12 12 11 9 8 8
2 3 4 5 4 5 5 6 5 3 3 3 2 2 2 3 3 3 2 3 3 3 3 3 2 2 3 2 2 3 4 4 5 14 18 17 16 15 13 12 11 10 10
4 4 4 5 4 3 3 4 5 5 5 4 3 1 1 1 2 2 2 2 2 2 3 3 2 2 2 2 2 3 4 4 4 6 15 15 15 15 14 14 13 12 12
4 5 4 4 2 1 1 1 2 4 3 3 3 2 0 2 3 3 1 1 0 0 1 1 2 2 2 2 2 2 3 3 4 4 5 9 12 15 15 15 14 14 13
5 5 5 5 6 5 6 7 5 3 2 2 2 2 4 6 6 3 2 2 2 1 0 0 1 1 1 1 2 2 3 2 3 3 2 4 5 5 8 12 15 16 15
7 7 8 8 9 8 12 12 8 6 5 4 2 1 5 6 6 5 4 3 2 1 1 1 0 1 1 1 2 2 1 1 2 2 1 2 2 3 3 4 8 14 15
7 8 8 8 8 9 14 13 11 6 5 5 4 2 1 4 6 5 6 7 5 5 4 0 1 1 1 1 0 1 1 2 2 1 1 2 1 1 1 2 3 4 8
6 6 6 6 6 9 15 14 13 5 5 5 4 4 2 1 1 1 1 3 3 5 5 2 1 2 3 2 1 0 0 0 1 1 1 1 1 1 1 1 2 3 3
5 5 5 6 6 7 14 15 14 5 4 4 3 3 4 4 6 5 3 2 2 2 4 6 6 5 4 3 2 1 1 1 1 1 1 1 1 2 2 1 0 1 2
4 4 4 4 5 5 10 14 14 5 5 4 3 3 7 6 5 5 3 3 3 2 2 3 2 2 2 2 0 1 1 1 1 1 0 0 1 1 2 2 1 1 1
Wind_Direction
209 168 179 169 185 182 166 247 253 195 53 52 29 44 73 88 96 110 126 135 133 133 149 166 153 139 133 139 153 154 152 156 158 157 155 156 154 150 146 144 141 125 107
205 149 192 148 207 162 168 221 232 107 72 67 44 39 22 72 118 129 139 141 142 138 136 143 145 136 139 157 167 174 166 171 176 179 180 184 186 186 179 178 176 163 150
186 157 200 153 205 182 185 227 197 117 114 111 144 35 76 21 9 128 142 152 148 135 128 123 121 120 121 119 124 140 149 161 175 187 192 200 206 202 197 191 186 191 199
178 165 175 146 183 166 178 116 39 75 121 181 183 186 157 152 260 139 162 154 152 144 131 127 126 122 118 114 111 114 123 133 140 152 160 167 177 187 197 202 213 222 226
175 145 134 139 157 131 128 129 171 163 193 196 170 145 275 181 177 238 205 151 146 149 142 138 133 128 127 124 123 124 126 128 127 131 140 148 164 193 215 230 239 243 237
150 129 130 142 126 116 83 28 82 65 21 330 287 251 215 253 234 249 280 135 161 156 153 154 151 145 143 135 130 135 140 141 138 142 149 158 176 206 234 245 247 246 239
124 116 123 121 95 104 120 283 6 338 306 319 321 327 309 259 252 205 209 250 209 155 157 164 169 160 153 142 134 133 133 143 143 144 152 164 183 204 228 246 248 242 237
155 140 140 142 142 142 174 233 244 29 298 277 223 255 312 319 294 251 200 209 267 161 186 180 169 164 163 153 148 133 115 123 133 135 134 134 144 179 209 232 239 233 202
144 146 152 157 172 173 193 213 217 210 224 255 246 195 190 233 285 295 238 199 215 205 203 215 182 176 163 151 145 132 124 116 128 137 141 138 140 138 144 163 160 150 143
152 154 164 176 190 191 197 213 217 210 210 229 249 240 220 203 181 285 306 248 205 203 200 202 226 149 146 136 147 149 142 135 141 151 145 137 133 130 128 127 129 130 134
136 149 168 198 213 203 210 221 226 210 208 218 227 237 245 255 227 206 263 298 292 211 183 190 174 212 144 139 147 159 156 154 157 166 164 155 146 137 133 132 128 129 141
92 76 87 285 279 242 227 226 214 213 217 224 231 227 221 223 230 218 223 248 268 267 204 190 180 184 161 145 161 159 162 165 170 174 174 175 169 164 162 162 159 159 160
107 109 128 208 264 263 247 216 210 220 220 218 223 227 217 221 222 212 218 240 247 272 260 208 189 177 180 154 148 164 171 174 181 186 187 189 190 187 190 193 194 202 226
109 124 178 222 234 249 273 234 228 256 239 223 222 220 204 229 220 205 202 207 239 258 248 242 216 196 201 183 174 177 181 183 187 193 195 197 199 202 206 208 212 218 238
135 185 214 218 211 202 247 258 186 264 233 242 268 276 220 228 226 229 212 190 190 220 239 230 212 222 213 207 176 186 182 191 193 197 199 200 203 206 210 212 212 214 225
144 205 227 222 201 184 199 225 296 339 0 256 138 287 267 241 232 229 226 218 201 201 232 237 214 216 200 239 185 194 205 194 199 199 201 203 205 208 212 214 213 214 221
347 276 265 251 205 191 189 168 216 214 253 265 211 212 220 218 211 226 223 220 217 199 221 245 221 207 197 247 211 247 240 189 198 204 205 205 206 209 213 216 217 217 222
295 277 271 271 236 193 182 171 191 188 222 257 269 240 221 191 198 218 213 222 220 211 209 236 226 211 216 220 215 259 266 227 202 207 209 209 209 210 213 216 219 220 223
280 270 264 266 256 200 191 176 179 199 215 220 219 236 264 157 184 197 198 214 216 224 210 219 230 215 227 229 226 248 262 271 260 216 207 211 213 213 215 217 220 222 224
283 283 276 279 280 237 248 239 214 207 221 220 194 186 178 78 61 39 59 45 77 245 238 230 237 224 222 223 208 229 253 257 266 263 214 209 213 218 222 223 224 224 226
346 349 0 10 19 26 27 18 357 334 292 259 223 182 124 110 102 81 63 39 32 8 328 249 276 258 223 200 218 222 237 253 263 257 241 214 202 211 221 231 233 233 230
19 17 22 38 41 33 24 22 8 343 333 322 298 165 146 153 154 158 165 176 165 55 41 25 351 325 292 245 229 223 238 252 271 285 268 271 200 217 228 216 229 229 231
36 32 31 39 46 34 23 14 5 334 308 307 314 310 227 152 159 186 198 208 216 208 201 202 21 36 26 346 300 250 238 234 246 318 28 308 338 309 305 355 352 245 236
46 42 33 36 45 35 20 9 354 319 290 292 299 304 310 115 129 75 158 219 211 185 195 193 86 79 73 52 55 57 261 263 16 12 51 301 331 310 332 352 17 3 299
43 54 39 32 36 33 20 10 359 325 324 312 310 352 32 62 51 42 3 350 53 107 119 108 99 100 96 72 42 45 44 41 350 324 58 14 334 324 315 306 328 331 302
29 50 51 39 38 31 23 16 7 353 352 347 352 45 64 74 68 43 15 25 35 31 110 131 130 146 179 172 234 348 63 45 360 338 137 122 324 344 333 311 282 277 287